Zurück zum Katalog

STARLINK-5673

AktivKommunikationVLEO
NORAD 55462·PAYLOAD·🇺🇸 United States

Gestartet Feb 2, 2023 von Cape Canaveral Space Force Station

Loading…

Nächste Überflüge (nächste 24 Stunden)

TLE

AktuellSource: CelesTrak SupGP

Epoche: Sep 15, 2026, 02:29 UTC

1 55462C 23015P   26258.10395833  .00028670  00000+0  10385-2 0  2587
2 55462  43.0016 338.7995 0001547 267.2905  68.1311 15.27562484    15

Verfolge STARLINK-5673 in Echtzeit mit AllMySat

Download on the App Store